Terminal Aerodrome Forecast
Issued by NWS Indianapolis, IN

Home | Current Version | Previous Version | Text Only | Print | Product List | Glossary On
Versions: 1 2 3 4 5 6 7 8 9 10 11 12 13 14 15 16 17 18 19 20 21 22 23 24 25 26 27
000
FTUS43 KIND 251120
TAFIND
TAF
KIND 251120Z 2512/2618 25020G27KT P6SM VCSH OVC030
     FM251400 27015G24KT P6SM OVC025
     FM251900 28015G24KT P6SM BKN035
     FM252300 28012G21KT P6SM SCT070
     FM260100 28009KT P6SM SCT090
     FM260600 28005KT P6SM FEW250
     FM261100 22004KT P6SM FEW200
     FM261500 19008KT P6SM FEW200=

USA.gov is the U.S. government's official web portal to all federal, state and local government web resources and services.